User: anonymous   Login
Location: Caltech
(34.1382°N, 118.1253°W)
Time: 17:38:12
(UTC-07:00)
Language:

IRS-1A Rocket - Orbit

View from above orbital plane
View from above orbital plane
View from above satellite
View from above satellite

Ground track
Ground track

The orbit data is extracted from the following two-line orbital elements,

1 18961U 88021B   15209.86154845 -.00000241  00000-0 -12926-3 0  9994
2 18961 099.2860 194.8406 0053270 317.2206 100.8712 14.00606431398926
Epoch (UTC): 28 July 2015 20:40:37
Eccentricity: 0.0053270
inclination: 99.2860°
perigee height: 853 km
apogee height: 930 km
right ascension of ascending node: 194.8406°
argument of perigee: 317.2206°
revolutions per day: 14.00606431
mean anomaly at epoch: 100.8712°
orbit number at epoch: 39892

The dashed part of the orbit path shows where the satellite is in the earth's shadow,  

DLR